Regional Weather Roundup
Issued by NWS Jackson, KY

Home | Current Version | Previous Version | Text Only | Print | Product List | Glossary Off
Versions: 1 2 3 4 5 6 7 8 9 10 11 12 13 14 15 16 17 18 19 20 21 22 23 24 25 26 27 28 29 30 31 32 33 34 35 36 37 38 39 40 41 42 43 44 45 46 47 48 49 50

000
ASUS43 KJKL 190519
RWRJKL

EAST KENTUCKY HOURLY WEATHER ROUNDUP
NATIONAL WEATHER SERVICE JACKSON KY
100 AM EDT SAT APR 19 2014

NOTE: "FAIR" INDICATES FEW OR NO CLOUDS BELOW 12,000 FEET WITH
NO SIGNIFICANT WEATHER AND/OR OBSTRUCTIONS TO VISIBILITY.

* THESE REPORTS ARE NOT UNDER NWS QUALITY CONTROL AND MAY NOT
  REPORT WEATHER SUCH AS PRECIPITATION AND FOG.

KYZ079-080-083-085-087-088-110-112-115-119-120-190600
...EASTERN KENTUCKY...

CITY           SKY/WX    TMP DP  RH WIND       PRES   REMARKS
JACKSON        CLOUDY    59  33  37 NE6       30.21S
LONDON         CLOUDY    57  41  55 CALM      30.20S
SOMERSET*      MOCLDY    55  41  58 CALM      30.20F
MONTICELLO*    CLOUDY    50  46  85 CALM      30.21F
WILLIAMSBURG*  CLEAR     54  43  66 CALM      30.19F
MIDDLESBORO*   CLOUDY    51  43  76 CALM      30.20F
HARLAN APT*    CLOUDY    54  37  54 E5        30.20S
BLACK MTN*       N/A     48  36  61 VRB9        N/A
PIKEVILLE APT* CLEAR     57  39  51 CALM      30.20S
BIG SANDY*     CLOUDY    57  37  47 NE7       30.20S
ASHLAND*       CLEAR     50  41  71 CALM      30.20S
MOREHEAD APT*  CLEAR     59  34  38 MISG      30.24S
$$

KYZ035-036-041-042-044-050-067-078-099-190600
...CENTRAL KENTUCKY...

CITY           SKY/WX    TMP DP  RH WIND       PRES   REMARKS
MT STERLING*   MOCLDY    50  43  76 NE3       30.23S
FLEMING/MASON* CLEAR     55  37  50 NE3       30.23S
DANVILLE*      MOCLDY    52  41  66 CALM      30.22S
LEXINGTON      MOCLDY    52  41  66 NE5       30.22S
FRANKFORT      MOCLDY    47  41  80 CALM      30.21S
$$

KYZ091>093-OHZ055-061-077-WVZ005-015-034-035-042-190600
...SOUTHERN OHIO/WEST VIRGINIA...

CITY           SKY/WX    TMP DP  RH WIND       PRES   REMARKS
COVINGTON      MOCLDY    56  39  53 N8        30.24S
COLUMBUS       PTCLDY    52  39  61 CALM      30.24R
DAYTON         MOCLDY    54  37  52 N9        30.28R
WILMINGTON     PTCLDY    53  38  56 N9        30.24S
HUNTINGTON     CLOUDY    58  35  42 CALM      30.20S
CHARLESTON     CLOUDY    54  42  64 SE3       30.20S
PINEVILLE*     CLOUDY    50  43  78 MISG      30.26R
BECKLEY        CLOUDY    50  30  46 SE3       30.23R
BLUEFIELD      CLOUDY    52  32  46 N3        30.23S
$$

VAZ002-007-008-TNZ017-027-036-066-071-190600
...SOUTHWEST VIRGINIA/EAST TENNESSEE...

CITY           SKY/WX    TMP DP  RH WIND       PRES   REMARKS
WISE*          CLOUDY    52  32  46 N3        30.21F
ABINGDON*      CLOUDY    55  33  42 E7        30.19F
BRISTOL        CLOUDY    51  39  63 CALM      30.18F
KNOXVILLE      CLOUDY    55  40  56 NE8       30.15F
OAK RIDGE      CLOUDY    53  43  68 CALM      30.18F
CROSSVILLE     CLOUDY    51  40  65 CALM      30.19F
NASHVILLE      MOCLDY    56  47  71 CALM      30.18F
$$

...KEY TO REMARKS...
VSB - VISIBILITY IN MILES
WCI - WIND CHILL INDEX
HX  - HEAT INDEX

$$



USA.gov is the U.S. government's official web portal to all federal, state and local government web resources and services.